Time,TemperatureF,DewpointF,PressureIn,WindDirection,WindDirectionDegrees,WindSpeedMPH,WindSpeedGustMPH,Humidity,HourlyPrecipIn,Conditions,Clouds,dailyrainin,SoftwareType,DateUTC
2013-02-03 00:00:00,60.7,54.8,30.12,North,355,0.0,1.0,81,0.00,,,0.00,Wunderground v.1.15,2013-02-03 08:00:00,
2013-02-03 00:06:00,60.7,54.8,30.12,North,355,0.0,1.0,81,0.00,,,0.00,Wunderground v.1.15,2013-02-03 08:06:00,
2013-02-03 00:12:00,60.7,54.8,30.12,North,355,0.0,1.0,81,0.00,,,0.00,Wunderground v.1.15,2013-02-03 08:12:00,
2013-02-03 00:18:00,60.7,55.2,30.12,North,355,0.0,1.0,82,0.00,,,0.00,Wunderground v.1.15,2013-02-03 08:18:00,
2013-02-03 00:24:00,60.6,55.1,30.11,North,355,0.0,1.0,82,0.00,,,0.00,Wunderground v.1.15,2013-02-03 08:24:00,
2013-02-03 00:30:00,60.6,55.1,30.11,North,355,0.0,1.0,82,0.00,,,0.00,Wunderground v.1.15,2013-02-03 08:30:00,
2013-02-03 00:36:00,60.5,55.3,30.11,North,355,0.0,1.0,83,0.00,,,0.00,Wunderground v.1.15,2013-02-03 08:36:00,
2013-02-03 00:42:00,60.5,55.3,30.11,North,355,0.0,1.0,83,0.00,,,0.00,Wunderground v.1.15,2013-02-03 08:42:00,
2013-02-03 00:48:00,60.5,55.6,30.11,North,355,0.0,1.0,84,0.00,,,0.00,Wunderground v.1.15,2013-02-03 08:48:00,
2013-02-03 00:54:00,60.4,55.2,30.11,North,5,0.0,2.0,83,0.00,,,0.00,Wunderground v.1.15,2013-02-03 08:54:00,
2013-02-03 01:00:00,60.3,55.1,30.11,ENE,66,1.0,1.0,83,0.00,,,0.00,Wunderground v.1.15,2013-02-03 09:00:00,
2013-02-03 01:06:00,60.3,55.4,30.11,ENE,69,1.0,1.0,84,0.00,,,0.00,Wunderground v.1.15,2013-02-03 09:06:00,
2013-02-03 01:12:00,60.3,55.8,30.11,ENE,69,1.0,1.0,85,0.00,,,0.00,Wunderground v.1.15,2013-02-03 09:12:00,
2013-02-03 01:18:00,60.2,55.7,30.11,ENE,69,1.0,2.0,85,0.00,,,0.00,Wunderground v.1.15,2013-02-03 09:18:00,
2013-02-03 01:24:00,60.1,55.6,30.10,ENE,69,1.0,2.0,85,0.00,,,0.00,Wunderground v.1.15,2013-02-03 09:24:00,
2013-02-03 01:30:00,60.1,55.2,30.10,ENE,71,1.0,2.0,84,0.00,,,0.00,Wunderground v.1.15,2013-02-03 09:30:00,
2013-02-03 01:36:00,60.3,55.1,30.09,ENE,71,1.0,2.0,83,0.00,,,0.00,Wunderground v.1.15,2013-02-03 09:36:00,
2013-02-03 01:43:00,60.5,55.0,30.09,ENE,71,1.0,1.0,82,0.00,,,0.00,Wunderground v.1.15,2013-02-03 09:43:00,
2013-02-03 01:48:00,60.6,54.7,30.09,ENE,71,0.0,1.0,81,0.00,,,0.00,Wunderground v.1.15,2013-02-03 09:48:00,
2013-02-03 01:54:00,60.7,54.8,30.09,ENE,71,0.0,1.0,81,0.00,,,0.00,Wunderground v.1.15,2013-02-03 09:54:00,
2013-02-03 02:00:00,60.7,54.8,30.09,ENE,71,0.0,1.0,81,0.00,,,0.00,Wunderground v.1.15,2013-02-03 10:00:00,
2013-02-03 02:06:00,60.6,54.7,30.09,ENE,71,0.0,1.0,81,0.00,,,0.00,Wunderground v.1.15,2013-02-03 10:06:00,
2013-02-03 02:12:00,60.6,55.1,30.09,ENE,65,0.0,2.0,82,0.00,,,0.00,Wunderground v.1.15,2013-02-03 10:12:00,
2013-02-03 02:18:00,60.5,54.6,30.09,NNE,15,1.0,2.0,81,0.00,,,0.00,Wunderground v.1.15,2013-02-03 10:18:00,
2013-02-03 02:24:00,60.6,54.7,30.08,NNE,15,1.0,1.0,81,0.00,,,0.00,Wunderground v.1.15,2013-02-03 10:24:00,
2013-02-03 02:30:00,60.6,54.7,30.09,NNE,15,0.0,1.0,81,0.00,,,0.00,Wunderground v.1.15,2013-02-03 10:30:00,
2013-02-03 02:37:00,60.6,54.7,30.09,NNE,15,0.0,1.0,81,0.00,,,0.00,Wunderground v.1.15,2013-02-03 10:37:00,
2013-02-03 02:42:00,60.6,54.7,30.08,NNE,15,0.0,1.0,81,0.00,,,0.00,Wunderground v.1.15,2013-02-03 10:42:00,
2013-02-03 02:48:00,60.6,54.7,30.09,NNE,15,0.0,1.0,81,0.00,,,0.00,Wunderground v.1.15,2013-02-03 10:48:00,
2013-02-03 02:54:00,60.6,54.4,30.09,NNE,15,0.0,1.0,80,0.00,,,0.00,Wunderground v.1.15,2013-02-03 10:54:00,
2013-02-03 03:00:00,60.6,54.4,30.09,NNE,15,0.0,1.0,80,0.00,,,0.00,Wunderground v.1.15,2013-02-03 11:00:00,
2013-02-03 03:07:00,60.6,54.7,30.09,NNE,15,0.0,1.0,81,0.00,,,0.00,Wunderground v.1.15,2013-02-03 11:07:00,
2013-02-03 03:12:00,60.5,54.6,30.09,NNE,15,0.0,1.0,81,0.00,,,0.00,Wunderground v.1.15,2013-02-03 11:12:00,
2013-02-03 03:18:00,60.4,54.5,30.09,NNE,15,0.0,1.0,81,0.00,,,0.00,Wunderground v.1.15,2013-02-03 11:18:00,
2013-02-03 03:24:00,60.2,54.0,30.09,NNE,15,0.0,1.0,80,0.00,,,0.00,Wunderground v.1.15,2013-02-03 11:24:00,
2013-02-03 03:30:00,60.2,54.7,30.08,NNE,15,1.0,1.0,82,0.00,,,0.00,Wunderground v.1.15,2013-02-03 11:30:00,
2013-02-03 03:36:00,59.8,54.0,30.08,NNE,15,0.0,1.0,81,0.00,,,0.00,Wunderground v.1.15,2013-02-03 11:36:00,
2013-02-03 03:42:00,59.6,54.1,30.08,NNE,15,0.0,1.0,82,0.00,,,0.00,Wunderground v.1.15,2013-02-03 11:42:00,
2013-02-03 03:48:00,59.3,53.8,30.08,NNE,15,0.0,1.0,82,0.00,,,0.00,Wunderground v.1.15,2013-02-03 11:48:00,
2013-02-03 03:54:00,58.9,53.7,30.08,NNE,15,0.0,2.0,83,0.00,,,0.00,Wunderground v.1.15,2013-02-03 11:54:00,
2013-02-03 04:00:00,58.5,53.4,30.08,NNE,15,1.0,1.0,83,0.00,,,0.00,Wunderground v.1.15,2013-02-03 12:00:00,
2013-02-03 04:06:00,58.2,53.4,30.08,NNE,15,1.0,1.0,84,0.00,,,0.00,Wunderground v.1.15,2013-02-03 12:06:00,
2013-02-03 04:12:00,57.9,53.4,30.08,NNE,15,1.0,2.0,85,0.00,,,0.00,Wunderground v.1.15,2013-02-03 12:12:00,
2013-02-03 04:18:00,57.6,53.1,30.08,NNE,15,1.0,2.0,85,0.00,,,0.00,Wunderground v.1.15,2013-02-03 12:18:00,
2013-02-03 04:24:00,57.4,53.2,30.08,NNE,15,0.0,1.0,86,0.00,,,0.00,Wunderground v.1.15,2013-02-03 12:24:00,
2013-02-03 04:30:00,57.1,53.0,30.08,NNE,15,0.0,1.0,86,0.00,,,0.00,Wunderground v.1.15,2013-02-03 12:30:00,
2013-02-03 04:36:00,56.8,52.7,30.08,NNE,15,0.0,1.0,86,0.00,,,0.00,Wunderground v.1.15,2013-02-03 12:36:00,
2013-02-03 04:43:00,56.4,52.6,30.08,NNE,15,0.0,1.0,87,0.00,,,0.00,Wunderground v.1.15,2013-02-03 12:43:00,
2013-02-03 04:48:00,56.1,52.3,30.08,NNE,15,0.0,1.0,87,0.00,,,0.00,Wunderground v.1.15,2013-02-03 12:48:00,
2013-02-03 04:54:00,55.8,52.3,30.08,NNE,15,0.0,1.0,88,0.00,,,0.00,Wunderground v.1.15,2013-02-03 12:54:00,
2013-02-03 05:00:00,55.6,52.1,30.08,NNE,15,0.0,1.0,88,0.00,,,0.00,Wunderground v.1.15,2013-02-03 13:00:00,
2013-02-03 05:06:00,55.2,52.0,30.08,NNE,15,0.0,1.0,89,0.00,,,0.00,Wunderground v.1.15,2013-02-03 13:06:00,
2013-02-03 05:12:00,54.8,51.6,30.08,NNE,15,0.0,1.0,89,0.00,,,0.00,Wunderground v.1.15,2013-02-03 13:12:00,
2013-02-03 05:18:00,54.6,51.7,30.08,NNE,15,0.0,1.0,90,0.00,,,0.00,Wunderground v.1.15,2013-02-03 13:18:00,
2013-02-03 05:24:00,54.4,51.8,30.07,NNE,15,0.0,1.0,91,0.00,,,0.00,Wunderground v.1.15,2013-02-03 13:24:00,
2013-02-03 05:30:00,54.2,51.6,30.07,NNE,15,0.0,1.0,91,0.00,,,0.00,Wunderground v.1.15,2013-02-03 13:30:00,
2013-02-03 05:36:00,54.0,51.4,30.07,NNE,15,0.0,1.0,91,0.00,,,0.00,Wunderground v.1.15,2013-02-03 13:36:00,
2013-02-03 05:44:00,53.7,51.1,30.08,NNE,15,0.0,1.0,91,0.00,,,0.00,Wunderground v.1.15,2013-02-03 13:44:00,
2013-02-03 05:50:00,53.5,50.9,30.07,NNE,15,0.0,1.0,91,0.00,,,0.00,Wunderground v.1.15,2013-02-03 13:50:00,
2013-02-03 05:56:00,53.3,50.7,30.07,NNE,15,0.0,1.0,91,0.00,,,0.00,Wunderground v.1.15,2013-02-03 13:56:00,
2013-02-03 06:04:00,53.0,50.7,30.07,NNE,15,0.0,1.0,92,0.00,,,0.00,Wunderground v.1.15,2013-02-03 14:04:00,
2013-02-03 06:10:00,52.8,50.5,30.08,NNE,15,0.0,1.0,92,0.00,,,0.00,Wunderground v.1.15,2013-02-03 14:10:00,
2013-02-03 06:16:00,52.7,50.4,30.08,NNE,15,0.0,1.0,92,0.00,,,0.00,Wunderground v.1.15,2013-02-03 14:16:00,
2013-02-03 06:23:00,52.6,50.6,30.08,NNE,15,0.0,1.0,93,0.00,,,0.00,Wunderground v.1.15,2013-02-03 14:23:00,
2013-02-03 06:28:00,52.4,50.4,30.08,NNE,15,0.0,1.0,93,0.00,,,0.00,Wunderground v.1.15,2013-02-03 14:28:00,
2013-02-03 06:34:00,52.3,50.3,30.08,NNE,15,0.0,1.0,93,0.00,,,0.00,Wunderground v.1.15,2013-02-03 14:34:00,
2013-02-03 06:40:00,52.2,50.2,30.08,NNE,15,0.0,1.0,93,0.00,,,0.00,Wunderground v.1.15,2013-02-03 14:40:00,
2013-02-03 06:46:00,52.0,50.0,30.08,NNE,15,0.0,1.0,93,0.00,,,0.00,Wunderground v.1.15,2013-02-03 14:46:00,
2013-02-03 06:52:00,51.9,49.9,30.08,NNE,15,0.0,1.0,93,0.00,,,0.00,Wunderground v.1.15,2013-02-03 14:52:00,
2013-02-03 06:58:00,51.8,49.8,30.08,NNE,15,0.0,1.0,93,0.00,,,0.00,Wunderground v.1.15,2013-02-03 14:58:00,
2013-02-03 07:04:00,51.7,50.0,30.08,NNE,15,0.0,1.0,94,0.00,,,0.00,Wunderground v.1.15,2013-02-03 15:04:00,
2013-02-03 07:10:00,51.7,50.0,30.08,NNE,15,0.0,1.0,94,0.00,,,0.00,Wunderground v.1.15,2013-02-03 15:10:00,
2013-02-03 07:16:00,51.8,50.1,30.08,NNE,15,0.0,1.0,94,0.00,,,0.00,Wunderground v.1.15,2013-02-03 15:16:00,
2013-02-03 07:22:00,52.1,50.4,30.08,NNE,15,0.0,1.0,94,0.00,,,0.00,Wunderground v.1.15,2013-02-03 15:22:00,
2013-02-03 07:28:00,52.2,50.5,30.09,NNE,15,0.0,1.0,94,0.00,,,0.00,Wunderground v.1.15,2013-02-03 15:28:00,
2013-02-03 07:34:00,52.5,50.8,30.09,NNE,15,0.0,1.0,94,0.00,,,0.00,Wunderground v.1.15,2013-02-03 15:34:00,
2013-02-03 07:40:00,52.8,51.1,30.09,NNE,15,0.0,1.0,94,0.00,,,0.00,Wunderground v.1.15,2013-02-03 15:40:00,
2013-02-03 07:46:00,53.2,51.5,30.09,NNE,15,0.0,1.0,94,0.00,,,0.00,Wunderground v.1.15,2013-02-03 15:46:00,
2013-02-03 07:53:00,53.7,51.7,30.09,NNE,15,0.0,1.0,93,0.00,,,0.00,Wunderground v.1.15,2013-02-03 15:53:00,
2013-02-03 07:58:00,54.1,52.1,30.09,NNE,15,0.0,1.0,93,0.00,,,0.00,Wunderground v.1.15,2013-02-03 15:58:00,
2013-02-03 08:04:00,54.6,52.3,30.09,NNE,15,0.0,1.0,92,0.00,,,0.00,Wunderground v.1.15,2013-02-03 16:04:00,
2013-02-03 08:10:00,55.1,52.8,30.09,NNE,15,0.0,1.0,92,0.00,,,0.00,Wunderground v.1.15,2013-02-03 16:10:00,
2013-02-03 08:16:00,56.1,53.2,30.08,NNE,15,0.0,1.0,90,0.00,,,0.00,Wunderground v.1.15,2013-02-03 16:16:00,
2013-02-03 08:22:00,56.9,53.4,30.08,NNE,15,0.0,1.0,88,0.00,,,0.00,Wunderground v.1.15,2013-02-03 16:22:00,
2013-02-03 08:28:00,57.9,54.1,30.09,NNE,15,0.0,0.0,87,0.00,,,0.00,Wunderground v.1.15,2013-02-03 16:28:00,
2013-02-03 08:34:00,59.2,54.4,30.09,NNE,15,0.0,1.0,84,0.00,,,0.00,Wunderground v.1.15,2013-02-03 16:34:00,
2013-02-03 08:40:00,60.2,53.7,30.09,North,355,1.0,2.0,79,0.00,,,0.00,Wunderground v.1.15,2013-02-03 16:40:00,
2013-02-03 08:47:00,61.3,53.3,30.09,NW,310,1.0,3.0,75,0.00,,,0.00,Wunderground v.1.15,2013-02-03 16:47:00,
2013-02-03 08:52:00,61.9,53.1,30.09,NW,310,1.0,3.0,73,0.00,,,0.00,Wunderground v.1.15,2013-02-03 16:52:00,
2013-02-03 08:58:00,62.4,53.3,30.09,NW,310,1.0,1.0,72,0.00,,,0.00,Wunderground v.1.15,2013-02-03 16:58:00,
2013-02-03 09:04:00,63.1,53.5,30.09,NW,310,1.0,1.0,71,0.00,,,0.00,Wunderground v.1.15,2013-02-03 17:04:00,
2013-02-03 09:10:00,63.6,53.2,30.09,NW,310,1.0,1.0,69,0.00,,,0.00,Wunderground v.1.15,2013-02-03 17:10:00,
2013-02-03 09:16:00,64.1,53.7,30.08,NW,310,1.0,1.0,69,0.00,,,0.00,Wunderground v.1.15,2013-02-03 17:16:00,
2013-02-03 09:24:00,64.8,54.0,30.08,NW,310,0.0,1.0,68,0.00,,,0.00,Wunderground v.1.15,2013-02-03 17:24:00,
2013-02-03 09:30:00,65.5,53.0,30.08,NW,310,1.0,1.0,64,0.00,,,0.00,Wunderground v.1.15,2013-02-03 17:30:00,
2013-02-03 09:36:00,66.0,52.6,30.08,NW,310,1.0,1.0,62,0.00,,,0.00,Wunderground v.1.15,2013-02-03 17:36:00,
2013-02-03 09:42:00,66.4,52.1,30.09,WSW,247,1.0,2.0,60,0.00,,,0.00,Wunderground v.1.15,2013-02-03 17:42:00,
2013-02-03 09:48:00,66.7,51.9,30.09,WSW,248,1.0,2.0,59,0.00,,,0.00,Wunderground v.1.15,2013-02-03 17:48:00,
2013-02-03 09:54:00,66.9,51.6,30.09,SW,216,1.0,3.0,58,0.00,,,0.00,Wunderground v.1.15,2013-02-03 17:54:00,
2013-02-03 10:00:00,67.1,51.4,30.09,WNW,285,2.0,2.0,57,0.00,,,0.00,Wunderground v.1.15,2013-02-03 18:00:00,
2013-02-03 10:06:00,67.5,51.2,30.08,West,276,2.0,4.0,56,0.00,,,0.00,Wunderground v.1.15,2013-02-03 18:06:00,
2013-02-03 10:12:00,67.7,50.9,30.08,West,266,2.0,2.0,55,0.00,,,0.00,Wunderground v.1.15,2013-02-03 18:12:00,
2013-02-03 10:18:00,68.1,50.8,30.08,West,273,2.0,4.0,54,0.00,,,0.00,Wunderground v.1.15,2013-02-03 18:18:00,
2013-02-03 10:24:00,68.5,51.7,30.08,WSW,240,3.0,4.0,55,0.00,,,0.00,Wunderground v.1.15,2013-02-03 18:24:00,
2013-02-03 10:30:00,69.0,50.6,30.08,West,281,3.0,3.0,52,0.00,,,0.00,Wunderground v.1.15,2013-02-03 18:30:00,
2013-02-03 10:36:00,69.5,51.1,30.08,WSW,246,2.0,3.0,52,0.00,,,0.00,Wunderground v.1.15,2013-02-03 18:36:00,
2013-02-03 10:42:00,70.0,50.0,30.08,WNW,290,2.0,3.0,49,0.00,,,0.00,Wunderground v.1.15,2013-02-03 18:42:00,
2013-02-03 10:48:00,70.4,50.3,30.08,WNW,292,2.0,3.0,49,0.00,,,0.00,Wunderground v.1.15,2013-02-03 18:48:00,
2013-02-03 10:54:00,70.7,48.9,30.08,West,259,2.0,4.0,46,0.00,,,0.00,Wunderground v.1.15,2013-02-03 18:54:00,
2013-02-03 11:00:00,71.0,48.6,30.07,WNW,284,2.0,2.0,45,0.00,,,0.00,Wunderground v.1.15,2013-02-03 19:00:00,
2013-02-03 11:06:00,71.1,48.7,30.07,SSW,204,2.0,4.0,45,0.00,,,0.00,Wunderground v.1.15,2013-02-03 19:06:00,
2013-02-03 11:12:00,71.3,48.3,30.07,SW,216,3.0,5.0,44,0.00,,,0.00,Wunderground v.1.15,2013-02-03 19:12:00,
2013-02-03 11:18:00,71.2,48.2,30.06,SSE,147,3.0,5.0,44,0.00,,,0.00,Wunderground v.1.15,2013-02-03 19:18:00,
2013-02-03 11:24:00,72.2,48.5,30.06,WSW,257,2.0,3.0,43,0.00,,,0.00,Wunderground v.1.15,2013-02-03 19:24:00,
2013-02-03 11:30:00,73.0,47.9,30.05,WNW,295,2.0,3.0,41,0.00,,,0.00,Wunderground v.1.15,2013-02-03 19:30:00,
2013-02-03 11:36:00,72.7,48.3,30.05,West,264,2.0,3.0,42,0.00,,,0.00,Wunderground v.1.15,2013-02-03 19:36:00,
2013-02-03 11:44:00,73.1,48.0,30.04,West,278,2.0,2.0,41,0.00,,,0.00,Wunderground v.1.15,2013-02-03 19:44:00,
2013-02-03 11:50:00,73.3,48.2,30.04,WNW,302,2.0,2.0,41,0.00,,,0.00,Wunderground v.1.15,2013-02-03 19:50:00,
2013-02-03 11:56:00,73.4,48.3,30.04,South,191,2.0,5.0,41,0.00,,,0.00,Wunderground v.1.15,2013-02-03 19:56:00,
2013-02-03 12:02:00,73.1,48.0,30.03,WNW,286,3.0,3.0,41,0.00,,,0.00,Wunderground v.1.15,2013-02-03 20:02:00,
2013-02-03 12:08:00,73.2,48.1,30.03,ESE,114,2.0,3.0,41,0.00,,,0.00,Wunderground v.1.15,2013-02-03 20:08:00,
2013-02-03 12:14:00,74.0,48.1,30.02,South,181,2.0,2.0,40,0.00,,,0.00,Wunderground v.1.15,2013-02-03 20:14:00,
2013-02-03 12:20:00,74.7,48.1,30.02,South,171,2.0,2.0,39,0.00,,,0.00,Wunderground v.1.15,2013-02-03 20:20:00,
2013-02-03 12:26:00,75.3,47.2,30.01,West,262,2.0,4.0,37,0.00,,,0.00,Wunderground v.1.15,2013-02-03 20:26:00,
2013-02-03 12:33:00,75.5,48.8,30.01,South,182,2.0,2.0,39,0.00,,,0.00,Wunderground v.1.15,2013-02-03 20:33:00,
2013-02-03 12:38:00,75.6,48.2,30.00,South,178,2.0,4.0,38,0.00,,,0.00,Wunderground v.1.15,2013-02-03 20:38:00,
2013-02-03 12:44:00,75.5,47.4,30.00,SE,128,3.0,3.0,37,0.00,,,0.00,Wunderground v.1.15,2013-02-03 20:44:00,
2013-02-03 12:50:00,74.9,46.9,30.00,SSE,165,4.0,4.0,37,0.00,,,0.00,Wunderground v.1.15,2013-02-03 20:50:00,
2013-02-03 12:56:00,75.2,47.8,29.99,South,171,3.0,4.0,38,0.00,,,0.00,Wunderground v.1.15,2013-02-03 20:56:00,
2013-02-03 13:02:00,75.5,48.1,29.99,SSE,167,2.0,4.0,38,0.00,,,0.00,Wunderground v.1.15,2013-02-03 21:02:00,
2013-02-03 13:08:00,75.8,46.9,29.98,South,182,3.0,4.0,36,0.00,,,0.00,Wunderground v.1.15,2013-02-03 21:08:00,
2013-02-03 13:29:00,75.6,48.2,29.98,SSW,207,4.0,4.0,38,0.00,,,0.00,Wunderground v.1.15,2013-02-03 21:29:00,
2013-02-03 13:34:00,76.0,47.8,29.98,WSW,254,3.0,4.0,37,0.00,,,0.00,Wunderground v.1.15,2013-02-03 21:34:00,
2013-02-03 13:40:00,76.2,47.3,29.98,South,184,3.0,6.0,36,0.00,,,0.00,Wunderground v.1.15,2013-02-03 21:40:00,
2013-02-03 13:47:00,76.2,47.3,29.98,South,173,4.0,6.0,36,0.00,,,0.00,Wunderground v.1.15,2013-02-03 21:47:00,
2013-02-03 13:52:00,76.7,49.9,29.98,SSW,195,4.0,7.0,39,0.00,,,0.00,Wunderground v.1.15,2013-02-03 21:52:00,
2013-02-03 13:58:00,76.2,50.8,29.98,SSE,153,5.0,6.0,41,0.00,,,0.00,Wunderground v.1.15,2013-02-03 21:58:00,
2013-02-03 14:04:00,75.2,50.5,29.98,SE,145,6.0,8.0,42,0.00,,,0.00,Wunderground v.1.15,2013-02-03 22:04:00,
2013-02-03 14:10:00,74.8,50.2,29.98,South,175,7.0,7.0,42,0.00,,,0.00,Wunderground v.1.15,2013-02-03 22:10:00,
2013-02-03 14:16:00,74.7,49.4,29.98,South,171,6.0,10.0,41,0.00,,,0.00,Wunderground v.1.15,2013-02-03 22:16:00,
2013-02-03 14:22:00,74.0,49.4,29.98,South,184,7.0,7.0,42,0.00,,,0.00,Wunderground v.1.15,2013-02-03 22:22:00,
2013-02-03 14:28:00,74.2,50.3,29.98,SSE,168,7.0,7.0,43,0.00,,,0.00,Wunderground v.1.15,2013-02-03 22:28:00,
2013-02-03 14:34:00,74.0,49.4,29.98,South,171,6.0,9.0,42,0.00,,,0.00,Wunderground v.1.15,2013-02-03 22:34:00,
2013-02-03 14:40:00,74.1,49.5,29.98,SSW,199,6.0,6.0,42,0.00,,,0.00,Wunderground v.1.15,2013-02-03 22:40:00,
2013-02-03 14:46:00,74.3,50.4,29.98,South,186,5.0,6.0,43,0.00,,,0.00,Wunderground v.1.15,2013-02-03 22:46:00,
2013-02-03 14:52:00,74.2,49.6,29.98,SE,142,5.0,6.0,42,0.00,,,0.00,Wunderground v.1.15,2013-02-03 22:52:00,
2013-02-03 14:58:00,74.2,49.6,29.98,South,172,4.0,6.0,42,0.00,,,0.00,Wunderground v.1.15,2013-02-03 22:58:00,
2013-02-03 15:04:00,74.1,49.5,29.97,SSE,159,5.0,7.0,42,0.00,,,0.00,Wunderground v.1.15,2013-02-03 23:04:00,
2013-02-03 15:10:00,73.9,49.4,29.97,South,185,5.0,6.0,42,0.00,,,0.00,Wunderground v.1.15,2013-02-03 23:10:00,
2013-02-03 15:17:00,73.9,48.7,29.98,SSE,163,5.0,7.0,41,0.00,,,0.00,Wunderground v.1.15,2013-02-03 23:17:00,
2013-02-03 15:22:00,73.7,47.9,29.98,SSW,201,6.0,6.0,40,0.00,,,0.00,Wunderground v.1.15,2013-02-03 23:22:00,
2013-02-03 15:28:00,73.7,47.2,29.98,WSW,238,5.0,6.0,39,0.00,,,0.00,Wunderground v.1.15,2013-02-03 23:28:00,
2013-02-03 15:34:00,73.9,48.1,29.98,WSW,237,4.0,6.0,40,0.00,,,0.00,Wunderground v.1.15,2013-02-03 23:34:00,
2013-02-03 15:40:00,73.5,47.0,29.98,SSW,204,5.0,5.0,39,0.00,,,0.00,Wunderground v.1.15,2013-02-03 23:40:00,
2013-02-03 15:46:00,72.8,46.4,29.98,SW,224,6.0,7.0,39,0.00,,,0.00,Wunderground v.1.15,2013-02-03 23:46:00,
2013-02-03 15:53:00,72.7,46.3,29.97,SSE,168,5.0,6.0,39,0.00,,,0.00,Wunderground v.1.15,2013-02-03 23:53:00,
2013-02-03 15:58:00,72.9,47.2,29.97,SW,216,4.0,6.0,40,0.00,,,0.00,Wunderground v.1.15,2013-02-03 23:58:00,
2013-02-03 16:04:00,72.6,46.9,29.97,SSW,209,5.0,9.0,40,0.00,,,0.00,Wunderground v.1.15,2013-02-04 00:04:00,
2013-02-03 16:10:00,72.2,46.5,29.98,SSW,209,6.0,6.0,40,0.00,,,0.00,Wunderground v.1.15,2013-02-04 00:10:00,
2013-02-03 16:16:00,71.8,46.8,29.98,South,180,5.0,6.0,41,0.00,,,0.00,Wunderground v.1.15,2013-02-04 00:16:00,
2013-02-03 16:22:00,71.6,48.5,29.98,SSE,165,4.0,6.0,44,0.00,,,0.00,Wunderground v.1.15,2013-02-04 00:22:00,
2013-02-03 16:28:00,71.5,51.9,29.98,SE,126,3.0,6.0,50,0.00,,,0.00,Wunderground v.1.15,2013-02-04 00:28:00,
2013-02-03 16:34:00,71.3,52.8,29.98,SSE,161,3.0,6.0,52,0.00,,,0.00,Wunderground v.1.15,2013-02-04 00:34:00,
2013-02-03 16:40:00,70.6,52.6,29.98,SSE,153,3.0,3.0,53,0.00,,,0.00,Wunderground v.1.15,2013-02-04 00:40:00,
2013-02-03 16:46:00,70.0,52.1,29.97,SE,125,4.0,6.0,53,0.00,,,0.00,Wunderground v.1.15,2013-02-04 00:46:00,
2013-02-03 16:52:00,69.7,52.3,29.98,SE,138,3.0,6.0,54,0.00,,,0.00,Wunderground v.1.15,2013-02-04 00:52:00,
2013-02-03 16:58:00,69.4,52.0,29.98,SE,130,3.0,6.0,54,0.00,,,0.00,Wunderground v.1.15,2013-02-04 00:58:00,
2013-02-03 17:04:00,68.9,52.1,29.98,ESE,121,3.0,6.0,55,0.00,,,0.00,Wunderground v.1.15,2013-02-04 01:04:00,
2013-02-03 17:10:00,68.5,52.7,29.98,SSE,150,3.0,3.0,57,0.00,,,0.00,Wunderground v.1.15,2013-02-04 01:10:00,
2013-02-03 17:16:00,68.1,53.2,29.98,SE,142,1.0,6.0,59,0.00,,,0.00,Wunderground v.1.15,2013-02-04 01:16:00,
2013-02-03 17:22:00,67.6,53.2,29.98,SSE,148,1.0,3.0,60,0.00,,,0.00,Wunderground v.1.15,2013-02-04 01:22:00,
2013-02-03 17:28:00,67.1,52.7,29.98,SE,130,1.0,6.0,60,0.00,,,0.00,Wunderground v.1.15,2013-02-04 01:28:00,
2013-02-03 17:34:00,66.5,52.6,29.98,ESE,113,1.0,6.0,61,0.00,,,0.00,Wunderground v.1.15,2013-02-04 01:34:00,
2013-02-03 17:40:00,65.9,52.5,29.99,ESE,113,1.0,1.0,62,0.00,,,0.00,Wunderground v.1.15,2013-02-04 01:40:00,
2013-02-03 17:46:00,65.3,52.8,29.99,ESE,115,1.0,6.0,64,0.00,,,0.00,Wunderground v.1.15,2013-02-04 01:46:00,
2013-02-03 17:52:00,64.9,52.8,29.99,SE,130,1.0,6.0,65,0.00,,,0.00,Wunderground v.1.15,2013-02-04 01:52:00,
2013-02-03 17:58:00,64.6,53.0,29.99,SE,128,1.0,6.0,66,0.00,,,0.00,Wunderground v.1.15,2013-02-04 01:58:00,
2013-02-03 18:04:00,64.0,53.2,29.99,SE,132,1.0,6.0,68,0.00,,,0.00,Wunderground v.1.15,2013-02-04 02:04:00,
2013-02-03 18:10:00,63.4,53.4,29.99,ESE,109,2.0,6.0,70,0.00,,,0.00,Wunderground v.1.15,2013-02-04 02:10:00,
2013-02-03 18:16:00,62.8,53.3,29.99,East,99,2.0,6.0,71,0.00,,,0.00,Wunderground v.1.15,2013-02-04 02:16:00,
2013-02-03 18:22:00,62.3,53.2,30.00,ESE,112,2.0,6.0,72,0.00,,,0.00,Wunderground v.1.15,2013-02-04 02:22:00,
2013-02-03 18:28:00,61.9,53.1,30.00,SE,146,2.0,6.0,73,0.00,,,0.00,Wunderground v.1.15,2013-02-04 02:28:00,
2013-02-03 18:34:00,61.6,53.6,30.00,ESE,109,2.0,6.0,75,0.00,,,0.00,Wunderground v.1.15,2013-02-04 02:34:00,
2013-02-03 18:40:00,61.3,53.3,30.00,ESE,102,2.0,6.0,75,0.00,,,0.00,Wunderground v.1.15,2013-02-04 02:40:00,
2013-02-03 18:46:00,61.0,53.4,30.01,East,97,1.0,6.0,76,0.00,,,0.00,Wunderground v.1.15,2013-02-04 02:46:00,
2013-02-03 18:52:00,60.8,53.5,30.01,East,97,1.0,6.0,77,0.00,,,0.00,Wunderground v.1.15,2013-02-04 02:52:00,
2013-02-03 18:58:00,60.5,53.6,30.01,SSE,159,1.0,6.0,78,0.00,,,0.00,Wunderground v.1.15,2013-02-04 02:58:00,
2013-02-03 19:04:00,60.2,53.7,30.01,SE,140,2.0,6.0,79,0.00,,,0.00,Wunderground v.1.15,2013-02-04 03:04:00,
2013-02-03 19:10:00,59.9,53.4,30.01,SSE,155,2.0,6.0,79,0.00,,,0.00,Wunderground v.1.15,2013-02-04 03:10:00,
2013-02-03 19:16:00,59.7,53.5,30.01,SE,145,2.0,6.0,80,0.00,,,0.00,Wunderground v.1.15,2013-02-04 03:16:00,
2013-02-03 19:22:00,59.5,53.3,30.01,SE,145,1.0,6.0,80,0.00,,,0.00,Wunderground v.1.15,2013-02-04 03:22:00,
2013-02-03 19:28:00,59.3,53.5,30.01,SE,145,1.0,6.0,81,0.00,,,0.00,Wunderground v.1.15,2013-02-04 03:28:00,
2013-02-03 19:34:00,59.0,53.2,30.01,SE,146,1.0,6.0,81,0.00,,,0.00,Wunderground v.1.15,2013-02-04 03:34:00,
2013-02-03 19:40:00,58.8,53.3,30.02,SE,146,1.0,6.0,82,0.00,,,0.00,Wunderground v.1.15,2013-02-04 03:40:00,
2013-02-03 19:46:00,58.6,53.1,30.02,SE,146,0.0,6.0,82,0.00,,,0.00,Wunderground v.1.15,2013-02-04 03:46:00,
2013-02-03 19:52:00,58.3,52.8,30.02,SE,146,0.0,6.0,82,0.00,,,0.00,Wunderground v.1.15,2013-02-04 03:52:00,
2013-02-03 19:58:00,58.1,53.0,30.02,SE,146,0.0,6.0,83,0.00,,,0.00,Wunderground v.1.15,2013-02-04 03:58:00,
2013-02-03 20:04:00,57.9,53.1,30.02,SE,146,1.0,6.0,84,0.00,,,0.00,Wunderground v.1.15,2013-02-04 04:04:00,
2013-02-03 20:10:00,57.6,52.8,30.02,SE,146,0.0,6.0,84,0.00,,,0.00,Wunderground v.1.15,2013-02-04 04:10:00,
2013-02-03 20:16:00,57.4,52.6,30.02,SE,146,0.0,6.0,84,0.00,,,0.00,Wunderground v.1.15,2013-02-04 04:16:00,
2013-02-03 20:22:00,57.1,52.6,30.02,SE,146,0.0,6.0,85,0.00,,,0.00,Wunderground v.1.15,2013-02-04 04:22:00,
2013-02-03 20:28:00,56.9,52.4,30.02,SE,146,0.0,6.0,85,0.00,,,0.00,Wunderground v.1.15,2013-02-04 04:28:00,
2013-02-03 20:34:00,56.7,52.6,30.02,SE,146,0.0,6.0,86,0.00,,,0.00,Wunderground v.1.15,2013-02-04 04:34:00,
2013-02-03 20:40:00,56.5,52.4,30.02,SE,146,0.0,6.0,86,0.00,,,0.00,Wunderground v.1.15,2013-02-04 04:40:00,
2013-02-03 20:46:00,56.4,52.6,30.03,SE,146,0.0,6.0,87,0.00,,,0.00,Wunderground v.1.15,2013-02-04 04:46:00,
2013-02-03 20:52:00,56.2,52.4,30.02,SE,146,0.0,6.0,87,0.00,,,0.00,Wunderground v.1.15,2013-02-04 04:52:00,
2013-02-03 20:58:00,56.2,52.4,30.02,SE,146,0.0,6.0,87,0.00,,,0.00,Wunderground v.1.15,2013-02-04 04:58:00,
2013-02-03 21:00:00,56.1,52.3,30.03,SE,146,0.0,6.0,87,0.00,,,0.00,Wunderground v.1.15,2013-02-04 05:00:00,
2013-02-03 21:03:00,56.0,52.2,30.02,SE,146,0.0,6.0,87,0.00,,,0.00,Wunderground v.1.15,2013-02-04 05:03:00,
2013-02-03 21:04:00,56.0,52.2,30.02,SE,146,0.0,6.0,87,0.00,,,0.00,Wunderground v.1.15,2013-02-04 05:04:00,
2013-02-03 21:10:00,55.9,52.1,30.02,SE,146,0.0,6.0,87,0.00,,,0.00,Wunderground v.1.15,2013-02-04 05:10:00,
2013-02-03 21:16:00,55.7,52.2,30.03,SE,146,0.0,6.0,88,0.00,,,0.00,Wunderground v.1.15,2013-02-04 05:16:00,
2013-02-03 21:22:00,55.5,52.0,30.02,SE,146,0.0,6.0,88,0.00,,,0.00,Wunderground v.1.15,2013-02-04 05:22:00,
2013-02-03 21:27:00,55.4,51.9,30.03,SE,146,0.0,6.0,88,0.00,,,0.00,Wunderground v.1.15,2013-02-04 05:27:00,
2013-02-03 21:32:00,55.3,52.1,30.02,SE,146,0.0,6.0,89,0.00,,,0.00,Wunderground v.1.15,2013-02-04 05:32:00,
2013-02-03 21:38:00,55.2,52.0,30.03,SE,146,0.0,6.0,89,0.00,,,0.00,Wunderground v.1.15,2013-02-04 05:38:00,
2013-02-03 21:44:00,55.0,51.5,30.03,SE,146,0.0,6.0,88,0.00,,,0.00,Wunderground v.1.15,2013-02-04 05:44:00,
2013-02-03 21:50:00,54.8,51.6,30.03,SE,146,1.0,1.0,89,0.00,,,0.00,Wunderground v.1.15,2013-02-04 05:50:00,
2013-02-03 21:56:00,54.7,51.5,30.03,SE,146,0.0,6.0,89,0.00,,,0.00,Wunderground v.1.15,2013-02-04 05:56:00,
2013-02-03 22:02:00,54.7,51.5,30.03,SE,146,0.0,6.0,89,0.00,,,0.00,Wunderground v.1.15,2013-02-04 06:02:00,
2013-02-03 22:08:00,54.8,51.6,30.03,ESE,118,1.0,6.0,89,0.00,,,0.00,Wunderground v.1.15,2013-02-04 06:08:00,
2013-02-03 22:14:00,55.0,51.5,30.03,ESE,122,1.0,6.0,88,0.00,,,0.00,Wunderground v.1.15,2013-02-04 06:14:00,
2013-02-03 22:20:00,55.0,51.5,30.03,ESE,122,0.0,6.0,88,0.00,,,0.00,Wunderground v.1.15,2013-02-04 06:20:00,
2013-02-03 22:26:00,54.8,51.0,30.03,ESE,122,0.0,6.0,87,0.00,,,0.00,Wunderground v.1.15,2013-02-04 06:26:00,
2013-02-03 22:32:00,54.5,50.7,30.03,ESE,122,0.0,6.0,87,0.00,,,0.00,Wunderground v.1.15,2013-02-04 06:32:00,
2013-02-03 22:38:00,54.3,50.5,30.03,ESE,122,0.0,6.0,87,0.00,,,0.00,Wunderground v.1.15,2013-02-04 06:38:00,
2013-02-03 22:44:00,53.9,50.1,30.03,ESE,122,0.0,6.0,87,0.00,,,0.00,Wunderground v.1.15,2013-02-04 06:44:00,
2013-02-03 22:50:00,53.6,50.1,30.03,ESE,122,0.0,6.0,88,0.00,,,0.00,Wunderground v.1.15,2013-02-04 06:50:00,
2013-02-03 22:56:00,53.3,49.8,30.04,ESE,122,0.0,6.0,88,0.00,,,0.00,Wunderground v.1.15,2013-02-04 06:56:00,
2013-02-03 23:04:00,52.8,49.3,30.04,ESE,122,0.0,6.0,88,0.00,,,0.00,Wunderground v.1.15,2013-02-04 07:04:00,
2013-02-03 23:10:00,52.6,49.4,30.04,ESE,122,0.0,6.0,89,0.00,,,0.00,Wunderground v.1.15,2013-02-04 07:10:00,
2013-02-03 23:16:00,52.5,49.4,30.04,ESE,122,0.0,6.0,89,0.00,,,0.00,Wunderground v.1.15,2013-02-04 07:16:00,
2013-02-03 23:22:00,52.3,48.9,30.04,ESE,122,0.0,6.0,88,0.00,,,0.00,Wunderground v.1.15,2013-02-04 07:22:00,
2013-02-03 23:28:00,52.1,49.0,30.04,ESE,122,0.0,6.0,89,0.00,,,0.00,Wunderground v.1.15,2013-02-04 07:28:00,
2013-02-03 23:34:00,52.1,49.3,30.04,ESE,122,0.0,6.0,90,0.00,,,0.00,Wunderground v.1.15,2013-02-04 07:34:00,
2013-02-03 23:40:00,52.1,49.3,30.04,ESE,122,0.0,6.0,90,0.00,,,0.00,Wunderground v.1.15,2013-02-04 07:40:00,
2013-02-03 23:46:00,52.3,50.0,30.04,ESE,122,0.0,6.0,92,0.00,,,0.00,Wunderground v.1.15,2013-02-04 07:46:00,
2013-02-03 23:52:00,52.9,50.6,30.03,ESE,121,1.0,6.0,92,0.00,,,0.00,Wunderground v.1.15,2013-02-04 07:52:00,
2013-02-03 23:58:00,53.3,50.7,30.04,ESE,107,1.0,6.0,91,0.00,,,0.00,Wunderground v.1.15,2013-02-04 07:58:00,